Previsão horária em Castelo Branco

Hoje, 30 Julho, Sexta-feira

Tempo Temperatura Precipitação Vento Pressão Humidade
00:00 +16°C° 0 mm 2 m/s 729 mmHg 61%
01:00 +16°C° 0 mm 2 m/s 729 mmHg 61%
02:00 +16°C° 0 mm 1 m/s 729 mmHg 62%
03:00 +15°C° 0 mm 1 m/s 729 mmHg 62%
04:00 +15°C° 0 mm 1 m/s 729 mmHg 62%
05:00 +15°C° 0 mm 1 m/s 729 mmHg 61%
06:00 +15°C° 0 mm 1 m/s 729 mmHg 60%
07:00 +20°C° 0 mm 1 m/s 729 mmHg 51%
08:00 +23°C° 0 mm 1 m/s 730 mmHg 41%
09:00 +27°C° 0 mm 1 m/s 730 mmHg 31%
10:00 +29°C° 0 mm 2 m/s 730 mmHg 28%
11:00 +31°C° 0 mm 3 m/s 730 mmHg 25%
12:00 +34°C° 0 mm 3 m/s 730 mmHg 23%
13:00 +34°C° 0 mm 4 m/s 730 mmHg 22%
14:00 +34°C° 0 mm 5 m/s 729 mmHg 21%
15:00 +34°C° 0 mm 6 m/s 729 mmHg 20%
16:00 +33°C° 0 mm 6 m/s 729 mmHg 25%
17:00 +30°C° 0 mm 6 m/s 729 mmHg 29%
18:00 +28°C° 0 mm 6 m/s 729 mmHg 33%
19:00 +25°C° 0 mm 5 m/s 729 mmHg 44%
20:00 +22°C° 0 mm 4 m/s 729 mmHg 56%
21:00 +19°C° 0 mm 3 m/s 729 mmHg 67%
22:00 +18°C° 0 mm 3 m/s 729 mmHg 70%
23:00 +17°C° 0 mm 3 m/s 729 mmHg 74%

Amanhã, 31 Julho, Sábado

Tempo Temperatura Precipitação Vento Pressão Humidade
00:00 +16°C° 0 mm 3 m/s 729 mmHg 78%
01:00 +16°C° 0 mm 3 m/s 729 mmHg 79%
02:00 +14°C° 0 mm 3 m/s 729 mmHg 81%
03:00 +14°C° 0 mm 3 m/s 729 mmHg 82%
04:00 +14°C° 0 mm 3 m/s 729 mmHg 83%
05:00 +15°C° 0 mm 2 m/s 729 mmHg 84%
06:00 +14°C° 0 mm 2 m/s 729 mmHg 85%
07:00 +17°C° 0 mm 2 m/s 730 mmHg 73%
08:00 +19°C° 0 mm 2 m/s 730 mmHg 62%
09:00 +21°C° 0 mm 3 m/s 730 mmHg 51%
10:00 +24°C° 0 mm 3 m/s 730 mmHg 42%
11:00 +26°C° 0 mm 3 m/s 730 mmHg 34%
12:00 +28°C° 0 mm 3 m/s 730 mmHg 25%
13:00 +28°C° 0 mm 4 m/s 730 mmHg 24%
14:00 +29°C° 0 mm 5 m/s 730 mmHg 22%
15:00 +29°C° 0 mm 6 m/s 730 mmHg 21%
16:00 +28°C° 0 mm 6 m/s 730 mmHg 26%
17:00 +26°C° 0 mm 7 m/s 730 mmHg 30%
18:00 +23°C° 0 mm 7 m/s 730 mmHg 34%
19:00 +21°C° 0 mm 6 m/s 730 mmHg 43%
20:00 +19°C° 0 mm 5 m/s 730 mmHg 51%
21:00 +17°C° 0 mm 4 m/s 730 mmHg 59%
22:00 +14°C° 0 mm 3 m/s 730 mmHg 64%
23:00 +14°C° 0 mm 2 m/s 730 mmHg 69%

Depois de amanhã, 1 Agosto, Domingo

Tempo Temperatura Precipitação Vento Pressão Humidade
00:00 +13°C° 0 mm 2 m/s 730 mmHg 74%
01:00 +13°C° 0 mm 2 m/s 730 mmHg 76%
02:00 +12°C° 0 mm 2 m/s 730 mmHg 78%
03:00 +12°C° 0 mm 2 m/s 730 mmHg 80%
04:00 +12°C° 0 mm 1 m/s 730 mmHg 80%
05:00 +12°C° 0 mm 1 m/s 730 mmHg 80%
06:00 +12°C° 0 mm 1 m/s 730 mmHg 79%
07:00 +15°C° 0 mm 1 m/s 730 mmHg 65%
08:00 +19°C° 0 mm 1 m/s 731 mmHg 50%
09:00 +23°C° 0 mm 2 m/s 731 mmHg 36%
10:00 +25°C° 0 mm 2 m/s 731 mmHg 29%
11:00 +27°C° 0 mm 2 m/s 731 mmHg 23%
12:00 +29°C° 0 mm 2 m/s 730 mmHg 17%
13:00 +30°C° 0 mm 2 m/s 730 mmHg 16%
14:00 +30°C° 0 mm 3 m/s 730 mmHg 15%
15:00 +32°C° 0 mm 4 m/s 729 mmHg 13%
16:00 +30°C° 0 mm 4 m/s 729 mmHg 18%
17:00 +28°C° 0 mm 5 m/s 729 mmHg 22%
18:00 +27°C° 0 mm 5 m/s 729 mmHg 26%
19:00 +23°C° 0 mm 4 m/s 729 mmHg 36%
20:00 +21°C° 0 mm 3 m/s 729 mmHg 45%
21:00 +18°C° 0 mm 2 m/s 729 mmHg 54%
22:00 +17°C° 0 mm 2 m/s 729 mmHg 59%
23:00 +16°C° 0 mm 2 m/s 729 mmHg 64%

2 Agosto, Segunda-feira

Tempo Temperatura Precipitação Vento Pressão Humidade
00:00 +16°C° 0 mm 2 m/s 729 mmHg 69%
01:00 +16°C° 0 mm 1 m/s 729 mmHg 69%
02:00 +16°C° 0 mm 1 m/s 729 mmHg 68%
03:00 +16°C° 0 mm 1 m/s 729 mmHg 68%
04:00 +16°C° 0 mm 1 m/s 729 mmHg 68%
05:00 +16°C° 0 mm 1 m/s 729 mmHg 67%
06:00 +16°C° 0 mm 1 m/s 729 mmHg 67%
07:00 +19°C° 0 mm 1 m/s 729 mmHg 57%
08:00 +22°C° 0 mm 1 m/s 729 mmHg 48%
09:00 +25°C° 0 mm 2 m/s 729 mmHg 38%
10:00 +28°C° 0 mm 1 m/s 729 mmHg 32%
11:00 +30°C° 0 mm 1 m/s 729 mmHg 26%
12:00 +32°C° 0 mm 1 m/s 729 mmHg 20%
13:00 +33°C° 0 mm 1 m/s 729 mmHg 19%
14:00 +34°C° 0 mm 1 m/s 729 mmHg 17%
15:00 +34°C° 0 mm 1 m/s 728 mmHg 16%
16:00 +34°C° 0 mm 2 m/s 728 mmHg 18%
17:00 +34°C° 0 mm 2 m/s 728 mmHg 20%
18:00 +32°C° 0 mm 2 m/s 728 mmHg 22%
19:00 +29°C° 0 mm 2 m/s 728 mmHg 31%
20:00 +25°C° 0 mm 2 m/s 728 mmHg 41%
21:00 +21°C° 0 mm 2 m/s 729 mmHg 50%
22:00 +20°C° 0 mm 2 m/s 729 mmHg 54%
23:00 +19°C° 0 mm 2 m/s 729 mmHg 57%

3 Agosto, Terça-feira

Tempo Temperatura Precipitação Vento Pressão Humidade
00:00 +20°C° 0 mm 1 m/s 729 mmHg 60%
01:00 +19°C° 0 mm 1 m/s 729 mmHg 60%
02:00 +19°C° 0 mm 1 m/s 729 mmHg 60%
03:00 +19°C° 0 mm 1 m/s 729 mmHg 61%
04:00 +19°C° 0 mm 1 m/s 729 mmHg 59%
05:00 +19°C° 0 mm 1 m/s 730 mmHg 58%
06:00 +19°C° 0 mm 1 m/s 730 mmHg 57%
07:00 +22°C° 0 mm 1 m/s 730 mmHg 48%
08:00 +25°C° 0 mm 1 m/s 731 mmHg 39%
09:00 +29°C° 0 mm 1 m/s 731 mmHg 30%
10:00 +31°C° 0 mm 1 m/s 731 mmHg 26%
11:00 +33°C° 0 mm 1 m/s 731 mmHg 22%
12:00 +36°C° 0 mm 2 m/s 731 mmHg 18%
13:00 +36°C° 0 mm 2 m/s 731 mmHg 17%
14:00 +37°C° 0 mm 3 m/s 730 mmHg 16%
15:00 +37°C° 0 mm 4 m/s 730 mmHg 15%
16:00 +36°C° 0 mm 4 m/s 730 mmHg 18%
17:00 +34°C° 0 mm 5 m/s 730 mmHg 21%
18:00 +33°C° 0 mm 5 m/s 730 mmHg 24%
19:00 +29°C° 0 mm 4 m/s 730 mmHg 29%
20:00 +26°C° 0 mm 3 m/s 730 mmHg 34%
21:00 +23°C° 0 mm 2 m/s 731 mmHg 40%
22:00 +21°C° 0 mm 2 m/s 731 mmHg 42%
23:00 +20°C° 0 mm 2 m/s 731 mmHg 45%

4 Agosto, Quarta-feira

Tempo Temperatura Precipitação Vento Pressão Humidade
00:00 +20°C° 0 mm 1 m/s 731 mmHg 47%
01:00 +20°C° 0 mm 1 m/s 731 mmHg 47%
02:00 +20°C° 0 mm 1 m/s 731 mmHg 47%
03:00 +19°C° 0 mm 1 m/s 730 mmHg 47%
04:00 +19°C° 0 mm 1 m/s 731 mmHg 47%
05:00 +19°C° 0 mm 1 m/s 731 mmHg 48%
06:00 +19°C° 0 mm 1 m/s 731 mmHg 48%
07:00 +22°C° 0 mm 1 m/s 731 mmHg 41%
08:00 +25°C° 0 mm 2 m/s 732 mmHg 35%
09:00 +29°C° 0 mm 2 m/s 732 mmHg 28%
10:00 +31°C° 0 mm 2 m/s 732 mmHg 25%
11:00 +34°C° 0 mm 2 m/s 732 mmHg 22%
12:00 +36°C° 0 mm 2 m/s 732 mmHg 19%
13:00 +37°C° 0 mm 2 m/s 731 mmHg 18%
14:00 +37°C° 0 mm 3 m/s 731 mmHg 18%
15:00 +38°C° 0 mm 3 m/s 730 mmHg 17%
16:00 +37°C° 0 mm 4 m/s 730 mmHg 20%
17:00 +35°C° 0 mm 5 m/s 730 mmHg 23%
18:00 +34°C° 0 mm 5 m/s 730 mmHg 26%
19:00 +30°C° 0 mm 4 m/s 730 mmHg 32%
20:00 +26°C° 0 mm 4 m/s 731 mmHg 38%
21:00 +22°C° 0 mm 3 m/s 731 mmHg 45%
22:00 +21°C° 0 mm 2 m/s 731 mmHg 49%
23:00 +20°C° 0 mm 2 m/s 731 mmHg 54%
Mostrar mais

Necessitamos do seu Consentimento

A Meteoprog e os seus Fornecedores de Serviços podem armazenar e aceder a dados pessoais como cookies, identificadores do dispositivo ou outras tecnologias semelhantes existentes no seu dispositivo e processar estes dados para personalizar conteúdos e anúncios, assim como funcionalidades nas redes sociais e análise de tráfego.

  • Armazenar e/ou aceder a informações no seu dispositivo

    Os cookies, identificadores do dispositivo ou outras informações podem ser armazenados ou acedidos no seu dispositivo, para os fins acima indicados.

  • Anúncios e conteúdos personalizados, medição de anúncios e conteúdos, dados sobre o público-alvo e desenvolvimento de produtos

    Os anúncios e os conteúdos podem ser personalizados com base num perfil. Podem ser adicionados dados adicionais para uma maior personalização dos anúncios e dos conteúdos. A eficácia dos anúncios e dos conteúdos pode ser medida. Podem ser obtidas informações sobre o público que visualizou os anúncios e os conteúdos. Estes dados podem ser usados para desenvolver ou melhorar sistemas, softwares ou a experiência do utilizador.

Ao clicar em "Eu concordo”, permitirá o uso de cookies, identificadores do dispositivo e web beacons mencionados ou outras tecnologias semelhantes. As configurações do navegador do seu dispositivo podem ser alteradas.

Para certos fins, podem ser invocados interesses legítimos ao invés de consentimento. Pode ler mais informação sobre este assunto na nossa Política de Privacidade e Cookies.